Location: Brienzwiler
(46.7508°N, 8.1014°E)
Time: 17:12:24
(UTC+00:00)

USA 267 - Pass Details

Date: 05 July 2020
Orbit: 1102 x 1106 km, 123.0° (Epoch: 09 August)

Event Time Altitude Azimuth Distance (km) Brightness Sun altitude
Exits shadow 23:21:16 31° 202° (SSW) 1,807 3.9 -20.5°
Maximum altitude 23:22:53 36° 230° (SW) 1,680 3.9 -20.6°
Drops below altitude 10° 23:28:49 10° 295° (WNW) 2,964 5.8 -20.6°
Sets 23:31:33 0° 304° (NW) 3,925 6.6 -20.6°
